STARLINK-32616, 61920

Orbit data source: Space-Track

STARLINK-32616, 61920 is a payload satellite owned by SpaceX/Seattle (US) in LEO that was launched on Mon, 11 Nov 2024 UTC via an FALCON 9 launch vehicle from the Air Force Eastern Test Range (AFETR). Payload-class satellites include a variety of spacecraft equipped with specific instruments for various scientific and technological missions. These include communications satellites like Starlink; space stations such as the ISS; scientific satellites like the Hubble; Earth observation satellites from companies like Planet Labs, Umbra, and HawkEye 360; GPS; miniature CubeSats for education and research; and military/defense satellites.

Loading next visibility...
Identifier
61920, 2024-207J
Orbit
LEO
Country
Flag of USUS
Related business
Manufacturer
SpaceX/Seattle
Mission
Operational Commercial Communications
Bus & Motor
STARLINK V2M, Unknown motor
Mass
730 kg wet, ~700 kg dry
Launch date (UTC)
2024-11-11 (2 years ago)
Launch vehicle
FALCON 9
Launch site
Air Force Eastern Test Range (AFETR)
Object type
Payload
Rocket body
Debris
Shape & HBR
Box + 2 Pan, 17.7 m
Radar Cross Section
33.884 m², Large (>1 m²)

Expand to show TLE details & history
Last TLE update: 23 hours ago

TLE from 23 hours ago
0 STARLINK-32616
1 61920U 24207J   26262.70558236  .00015327  00000-0  56534-3 0  9991
2 61920  42.9995 266.0965 0000871 294.4495  65.6266 15.27579008104397
Epoch: 2026-09-19T16:56Z
TLE epoch observation values (Epoch: 2026-09-19T16:56:02.315Z)
Latitude
-0.00002°
Longitude
13.47656°
Altitude
482.581 km
Speed
7.626 km/s
True Right ascension
17h 44m 23s
True Declination
0° 00' 00"
Sunlit
Object was in daylight at epoch
Visualization orbit readout
Latitude
Unknown
Longitude
Unknown
Altitude
Unknown
Speed
Unknown
Apparent Right ascension
Unknown
Apparent Declination
Unknown
Sunlit
N/A
Visualization observer readout
Local Sidereal Time
08:27:56
Azimuth
Unknown
Elevation
Unknown
Doppler factor
Unknown
Orbital elements
Apogee altitude
485.595 km
Perigee altitude
484.4 km
Semi-major axis
6,863.134 km
Eccentricity
0.00009
Inclination
42.9995°
RAAN
266.0965°
Arg. of periapsis
294.4495°
True anomaly
65.63569°
Mean anomaly
65.6266°
Eccentric anomaly
65.63115°
Mean motion
3.81733 °/min
Orbital period
94.31 mins
BSTAR
0.00056534
Loading maneuver chart data...
Computing Atmospheric mass density...
Loading historical data...
Loading historical data...
Loading historical data...
Loading historical data...
Loading historical data...
Loading historical data...
Loading historical data...

Documentation

Showing up to 5 results
|